DECAYED

RESURS P1 DEB, 60217 (Decayed)

Orbit data source: Space-Track

RESURS P1 DEB, 60217 was space debris in LEO originally from a Commonwealth of Independent States-origin launch on Tue, 25 Jun 2013 UTC launched from the Tyuratam Missile And Space Complex (TTMTR). Debris objects in space refer to the collection of defunct objects orbiting the Earth. Examples of debris include non-operational satellites, rocket bodies, and fragments generated from explosions, collisions, or faulty payload assembly.

Not visible in the next 10 days
Identifier
60217, 2013-030F
Orbit
Decayed
Country
Flag of CISCIS
Related business
Manufacturer
TSSKBP?
Mission
Decayed spacecraft
Bus & Motor
Unknown
Mass
Unknown
Launch date (UTC)
2013-06-25 (12 years ago)
Launch vehicle
Unknown
Launch site
Tyuratam Missile And Space Complex (TTMTR)
Object type
Payload
Rocket body
Debris
Shape & HBR
Unknown
Radar Cross Section
Medium (>0.1 m² and <1 m²)

Expand to show TLE details & history
Last TLE update: 1 year ago

TLE from 1 year ago
0 RESURS P1 DEB
1 60217U 13030F   24232.51963325  .14769424  21035-5  23595-2 0  9999
2 60217  96.9092 281.4807 0024247 245.4312 114.4458 16.32770253  8329
Epoch: 2024-08-19T12:28Z
TLE epoch observation values (Epoch: 2024-08-19T12:28:16.312Z)
Latitude
-0.00005°
Longitude
126.06339°
Altitude
194.981 km
Speed
7.785 km/s
True Right ascension
18h 45m 55s
True Declination
0° 00' 00"
Sunlit
Object was in full shadow at epoch
Visualization orbit readout
Latitude
Unknown
Longitude
Unknown
Altitude
Unknown
Speed
Unknown
Apparent Right ascension
Unknown
Apparent Declination
Unknown
Sunlit
N/A
Visualization observer readout
Local Sidereal Time
00:00:40
Azimuth
Unknown
Elevation
Unknown
Doppler factor
Unknown
Orbital elements
Apogee altitude
197.807 km
Perigee altitude
165.995 km
Semi-major axis
6,560.038 km
Eccentricity
0.00242
Inclination
96.9092°
RAAN
281.4807°
Arg. of periapsis
245.4312°
True anomaly
114.69842°
Mean anomaly
114.4458°
Eccentric anomaly
114.57214°
Mean motion
4.08492 °/min
Orbital period
88.13 mins
BSTAR
0.0023595
Loading maneuver chart data...
Computing Atmospheric mass density...

Documentation

Showing up to 5 results
|